This demonstration page uses our WeatherBlox Daily Observations layout. Learn more.

Left ArrowRight Arrow

39.01783, -85.05884

Hourly Observations for November 6, 2020

Temp ( °F °C ) Dew Point ( °F °C ) Humidity (%) Winds ( mph kmh ) Pressure ( in mb ) Visibility ( mi km ) Precip ( " mm )
12:52 am 00:52 Mostly Clear 47 8.3 40 4.4 77 77 SSW 5 7 30.28 1025 10 16.0934 0 0
1:52 am 01:52 Clear 45 7.2 40 4.4 83 83 S 5 7 30.27 1025 10 16.0934 0 0
2:52 am 02:52 Clear 48 8.9 40 4.4 74 74 Calm 30.27 1025 10 16.0934 0 0
3:52 am 03:52 Clear 46 7.8 39 3.9 77 77 Calm 30.27 1025 10 16.0934 0 0
4:52 am 04:52 Clear 45 7.2 39 3.9 80 80 S 5 7 30.28 1025 10 16.0934 0 0
5:52 am 05:52 Clear 46 7.8 39 3.9 77 77 SSW 5 7 30.29 1026 10 16.0934 0 0
6:52 am 06:52 Mostly Clear 44 6.7 39 3.9 83 83 S 3 6 30.29 1026 10 16.0934 0 0
7:52 am 07:52 Partly Cloudy 42 5.6 38 3.3 85 85 S 5 7 30.31 1027 10 16.0934 0 0
8:52 am 08:52 Mostly Sunny 52 11.1 44 6.7 75 75 S 6 9 30.32 1027 10 16.0934 0 0
9:52 am 09:52 Mostly Sunny 58 14.4 44 6.7 60 60 SSW 3 6 30.32 1027 10 16.0934 0 0
10:52 am 10:52 Mostly Sunny 63 17.2 44 6.7 50 50 W 3 6 30.33 1027 10 16.0934 0 0
11:52 am 11:52 Mostly Sunny 66 18.9 44 6.7 45 45 SW 7 11 30.31 1027 10 16.0934 0 0
12:52 pm 12:52 Sunny 68 20 43 6.1 40 40 S 9 15 30.29 1026 10 16.0934 0 0
1:52 pm 13:52 Sunny 69 20.6 42 5.6 38 38 S 6 9 30.26 1025 10 16.0934 0 0
2:52 pm 14:52 Sunny 70 21.1 42 5.6 37 37 SW 9 15 30.25 1024 10 16.0934 0 0
3:52 pm 15:52 Mostly Sunny 70 21.1 43 6.1 38 38 SSW 6 9 30.24 1024 8 12.87472 0 0
4:52 pm 16:52 Mostly Sunny 66 18.9 42 5.6 42 42 S 6 9 30.24 1024 10 16.0934 0 0
5:52 pm 17:52 Mostly Clear 63 17.2 41 5 45 45 SSW 5 7 30.25 1024 10 16.0934 0 0
6:52 pm 18:52 Mostly Clear 60 15.6 41 5 50 50 Calm 30.26 1025 10 16.0934 0 0
7:52 pm 19:52 Mostly Clear 58 14.4 41 5 53 53 S 5 7 30.26 1025 10 16.0934 0 0
8:52 pm 20:52 Mostly Clear 55 12.8 41 5 59 59 S 3 6 30.25 1025 10 16.0934 0 0
9:52 pm 21:52 Mostly Clear 56 13.3 41 5 57 57 S 5 7 30.26 1025 10 16.0934 0 0
10:52 pm 22:52 Mostly Clear 54 12.2 40 4.4 59 59 S 3 6 30.25 1024 10 16.0934 0 0
11:52 pm 23:52 Mostly Clear 51 10.6 41 5 69 69 S 5 7 30.24 1024 10 16.0934 0 0

Powered by AerisWeather